Погода в Мартиге

Франция     43°24′17″N   5°03′24″E
темп.,
°C
ветер,
м/с
пор.,
м/с
влажн.,
%
обл.,
%
осадки,
мм/ч
давл.,
гПа
погр.,
м
6 марта, сб
сб601:00+9ссз696819 0.0 1020277
04:00+8ссз34730 0.0 1020144
07:00+8с33760 0.0 1022105
10:00+11ссв22673 0.0 1024213
13:00+14ююз236022 0.0 1024628
16:00+15ю57604 0.0 1023858
19:00+13ююв58713 0.1 1024663
22:00+13ююв467029 0.1 1025518
7 марта, вс
вс701:00+12в236864 0.1 1025274
04:00+11всв2366100 0.0 1024206
07:00+10всв246999 0.0 1023198
10:00+12в225894 0.0 1023577
13:00+14ю224771 0.0 1022908
16:00+14ю325224 0.0 1020968
19:00+12ююз336542 0.0 1019432
22:00+12з127130 0.0 1019277
8 марта, пн
пн801:00+11ссз2278100 0.0 1019150
04:00+10ссз247685 0.0 1018175
07:00+9ссз237669 0.0 1017171
10:00+11ссз45702 0.0 1017465
13:00+15ссз455316 0.0 1017938
16:00+16ссз67490 0.0 1015942
19:00+13ссз69550 0.0 1016477
22:00+11с610580 0.0 1017376
9 марта, вт
вт901:00+9ссз58630 0.0 1018290
04:00+8ссз58680 0.0 1017281
07:00+7ссз58690 0.0 1017283
10:00+10ссз68600 0.0 1018427
13:00+13ссз810480 0.0 1018810
16:00+14ссз912370 0.0 10171082
19:00+12ссз815380 0.0 1018844
22:00+11ссз914400 0.0 1020763
10 марта, ср
ср1001:00+8ссз813500 0.0 1021484
04:00+7ссз69570 0.0 1021320
07:00+6ссз46610 0.0 1023210
10:00+9ссз23520 0.0 1023278
13:00+13зсз11430 0.0 1023610
16:00+15юз22400 0.0 1022993
19:00+12зюз34460 0.0 1023222
22:00+11зсз23480 0.0 1025191